| time (UTC) | temp F | wind direction | speed MPH | gust MPH | rain 1hr in | rain 24hr in | rain mn in | humidity % | barometer mb |
| 20260506230146 | 58 | 276 | 3.0 | 17.0 | 0.01 | 0.08 | 0.08 | 93 | 1003.9 |
| 20260506225804 | 58 | 331 | 3.0 | 9.0 | 0.01 | 0.08 | 0.08 | 93 | 1003.8 |
| 20260506225657 | 58 | 203 | 2.0 | 9.0 | 0.01 | 0.08 | 0.08 | 93 | 1003.9 |
| 20260506224650 | 58 | 215 | 3.0 | 9.0 | 0.00 | 0.07 | 0.07 | 93 | 1003.9 |
| 20260506224133 | 58 | 275 | 3.0 | 9.0 | 0.02 | 0.07 | 0.07 | 92 | 1004.1 |
| 20260506224050 | 58 | 283 | 2.0 | 9.0 | 0.00 | 0.07 | 0.07 | 93 | 1003.8 |
| 20260506223954 | 58 | 295 | 2.0 | 7.0 | 0.00 | 0.07 | 0.07 | 93 | 1003.9 |
| 20260506223355 | 59 | 10 | 2.0 | 8.0 | 0.02 | 0.07 | 0.07 | 92 | 1004.1 |
| 20260506223200 | 58 | 256 | 3.0 | 9.0 | 0.01 | 0.07 | 0.07 | 93 | 1003.8 |
| 20260506223151 | 58 | 327 | 3.0 | 9.0 | 0.01 | 0.07 | 0.07 | 93 | 1003.8 |
| 20260506223015 | 58 | 292 | 2.0 | 9.0 | 0.01 | 0.07 | 0.07 | 93 | 1003.9 |
| 20260506221524 | 58 | 111 | 3.0 | 9.0 | 0.01 | 0.07 | 0.07 | 93 | 1003.9 |
| 20260506220449 | 58 | 298 | 3.0 | 9.0 | 0.02 | 0.07 | 0.07 | 92 | 1004.2 |
| 20260506220119 | 59 | 26 | 2.0 | 9.0 | 0.02 | 0.07 | 0.07 | 92 | 1004.2 |
| 20260506214857 | 59 | 267 | 2.0 | 10.0 | 0.02 | 0.07 | 0.07 | 92 | 1004.2 |
| 20260506214438 | 59 | 269 | 3.0 | 16.0 | 0.02 | 0.07 | 0.07 | 92 | 1004.2 |
| 20260506214356 | 59 | 261 | 2.0 | 9.0 | 0.02 | 0.07 | 0.07 | 92 | 1004.2 |
| 20260506213353 | 59 | 302 | 3.0 | 16.0 | 0.02 | 0.07 | 0.07 | 92 | 1004.2 |
| 20260506212851 | 59 | 323 | 4.0 | 13.0 | 0.01 | 0.06 | 0.06 | 92 | 1004.4 |
| 20260506212351 | 59 | 237 | 4.0 | 13.0 | 0.01 | 0.06 | 0.06 | 91 | 1004.4 |
| 20260506211915 | 59 | 320 | 3.0 | 11.0 | 0.02 | 0.06 | 0.06 | 91 | 1004.5 |
| 20260506211836 | 59 | 310 | 3.0 | 10.0 | 0.02 | 0.06 | 0.05 | 91 | 1004.6 |
| 20260506211101 | 59 | 286 | 2.0 | 10.0 | 0.01 | 0.05 | 0.05 | 91 | 1004.5 |
| 20260506210342 | 59 | 246 | 2.0 | 10.0 | 0.01 | 0.05 | 0.05 | 91 | 1004.5 |
| 20260506205832 | 59 | 356 | 3.0 | 10.0 | 0.01 | 0.05 | 0.05 | 91 | 1004.4 |
| 20260506205623 | 59 | 183 | 3.0 | 8.0 | 0.01 | 0.05 | 0.05 | 91 | 1004.6 |
| 20260506205339 | 59 | 257 | 3.0 | 8.0 | 0.01 | 0.05 | 0.05 | 91 | 1004.6 |
| 20260506204957 | 59 | 263 | 3.0 | 8.0 | 0.01 | 0.05 | 0.05 | 91 | 1004.6 |
| 20260506203821 | 59 | 264 | 3.0 | 9.0 | 0.01 | 0.05 | 0.05 | 90 | 1004.7 |
| 20260506203335 | 59 | 219 | 2.0 | 9.0 | 0.02 | 0.05 | 0.05 | 90 | 1004.6 |
| 20260506202829 | 59 | 296 | 2.0 | 10.0 | 0.02 | 0.05 | 0.05 | 90 | 1004.8 |
| 20260506202324 | 59 | 320 | 2.0 | 10.0 | 0.03 | 0.05 | 0.04 | 90 | 1004.8 |
| 20260506201821 | 59 | 352 | 2.0 | 10.0 | 0.02 | 0.04 | 0.04 | 90 | 1004.9 |
| 20260506201608 | 60 | 305 | 2.0 | 8.0 | 0.02 | 0.04 | 0.04 | 89 | 1004.9 |
| 20260506201407 | 60 | 304 | 2.0 | 10.0 | 0.02 | 0.04 | 0.04 | 89 | 1004.9 |
| 20260506200545 | 60 | 345 | 3.0 | 10.0 | 0.03 | 0.04 | 0.04 | 89 | 1004.9 |
| 20260506195812 | 60 | 218 | 3.0 | 9.0 | 0.03 | 0.04 | 0.04 | 88 | 1004.8 |
| 20260506195317 | 60 | 271 | 3.0 | 11.0 | 0.03 | 0.04 | 0.04 | 88 | 1004.8 |
| 20260506194819 | 60 | 285 | 2.0 | 11.0 | 0.04 | 0.04 | 0.04 | 89 | 1004.8 |
| 20260506194304 | 60 | 282 | 2.0 | 7.0 | 0.04 | 0.04 | 0.04 | 88 | 1004.9 |
| 20260506193758 | 60 | 335 | 3.0 | 7.0 | 0.04 | 0.04 | 0.04 | 88 | 1004.7 |
| 20260506193258 | 60 | 268 | 2.0 | 7.0 | 0.03 | 0.03 | 0.03 | 87 | 1004.8 |
| 20260506192753 | 60 | 235 | 2.0 | 7.0 | 0.03 | 0.03 | 0.03 | 86 | 1004.9 |
| 20260506192305 | 61 | 279 | 2.0 | 14.0 | 0.02 | 0.02 | 0.02 | 85 | 1005.2 |
| 20260506192029 | 61 | 293 | 2.0 | 14.0 | 0.02 | 0.02 | 0.02 | 85 | 1005.1 |
| 20260506191306 | 61 | 251 | 3.0 | 14.0 | 0.02 | 0.02 | 0.02 | 84 | 1005.1 |
| 20260506190758 | 61 | 27 | 2.0 | 14.0 | 0.02 | 0.02 | 0.02 | 82 | 1005.1 |
| 20260506190318 | 62 | 279 | 3.0 | 11.0 | 0.01 | 0.01 | 0.01 | 81 | 1005.2 |
| 20260506190036 | 62 | 202 | 4.0 | 12.0 | 0.01 | 0.01 | 0.01 | 79 | 1005.2 |
| 20260506185720 | 64 | 308 | 3.0 | 12.0 | 0.00 | 0.00 | 0.00 | 76 | 1005.3 |
| 20260506185627 | 63 | 271 | 3.0 | 12.0 | 0.01 | 0.01 | 0.00 | 77 | 1005.3 |
| 20260506184252 | 64 | 318 | 3.0 | 12.0 | 0.00 | 0.00 | 0.00 | 74 | 1005.4 |
| 20260506183740 | 65 | 168 | 3.0 | 12.0 | 0.00 | 0.00 | 0.00 | 73 | 1005.3 |
| 20260506183245 | 65 | 121 | 2.0 | 12.0 | 0.00 | 0.00 | 0.00 | 72 | 1005.3 |
| 20260506182743 | 66 | 260 | 3.0 | 12.0 | 0.00 | 0.00 | 0.00 | 72 | 1005.3 |
| 20260506182235 | 66 | 312 | 4.0 | 12.0 | 0.00 | 0.00 | 0.00 | 70 | 1005.4 |
| 20260506181807 | 67 | 6 | 3.0 | 12.0 | 0.00 | 0.00 | 0.00 | 68 | 1005.3 |
| 20260506181302 | 68 | 220 | 2.0 | 8.0 | 0.00 | 0.00 | 0.00 | 66 | 1005.5 |
| 20260506180831 | 68 | 308 | 3.0 | 14.0 | 0.00 | 0.00 | 0.00 | 64 | 1005.5 |
| 20260506180813 | 67 | 294 | 4.0 | 16.0 | 0.00 | 0.00 | 0.00 | 66 | 1005.5 |
| 20260506180408 | 68 | 258 | 5.0 | 16.0 | 0.00 | 0.00 | 0.00 | 65 | 1005.4 |
| 20260506175418 | 71 | 210 | 4.0 | 18.0 | 0.00 | 0.00 | 0.00 | 60 | 1005.8 |
| 20260506175412 | 70 | 60 | 5.0 | 14.0 | 0.00 | 0.00 | 0.00 | 59 | 1005.9 |
| 20260506175258 | 69 | 161 | 4.0 | 14.0 | 0.00 | 0.00 | 0.00 | 63 | 1005.5 |
| 20260506174924 | 69 | 277 | 4.0 | 16.0 | 0.00 | 0.00 | 0.00 | 61 | 1005.4 |
| 20260506174910 | 71 | 294 | 4.0 | 17.0 | 0.00 | 0.00 | 0.00 | 60 | 1005.6 |
| 20260506174816 | 69 | 190 | 5.0 | 16.0 | 0.00 | 0.00 | 0.00 | 61 | 1005.6 |
| 20260506174748 | 71 | 284 | 5.0 | 17.0 | 0.00 | 0.00 | 0.00 | 58 | 1005.7 |
| 20260506174725 | 71 | 308 | 4.0 | 17.0 | 0.00 | 0.00 | 0.00 | 58 | 1005.7 |
| 20260506174711 | 72 | 303 | 4.0 | 12.0 | 0.00 | 0.00 | 0.00 | 57 | 1005.8 |
| 20260506174705 | 72 | 281 | 4.0 | 18.0 | 0.00 | 0.00 | 0.00 | 59 | 1005.6 |
| 20260506173944 | 70 | 34 | 4.0 | 16.0 | 0.00 | 0.00 | 0.00 | 61 | 1005.5 |
| 20260506173326 | 70 | 252 | 4.0 | 16.0 | 0.00 | 0.00 | 0.00 | 59 | 1005.7 |
| 20260506172342 | 70 | 306 | 5.0 | 17.0 | 0.00 | 0.00 | 0.00 | 59 | 1005.5 |
| 20260506170323 | 72 | 275 | 4.0 | 12.0 | 0.00 | 0.00 | 0.00 | 56 | 1005.7 |
| 20260506165950 | 72 | 354 | 5.0 | 12.0 | 0.00 | 0.00 | 0.00 | 56 | 1005.4 |
| 20260506164044 | 70 | 21 | 5.0 | 16.0 | 0.00 | 0.00 | 0.00 | 60 | 1006.2 |
| 20260506163801 | 70 | 225 | 4.0 | 13.0 | 0.00 | 0.00 | 0.00 | 59 | 1006.0 |
| 20260506163415 | 71 | 347 | 4.0 | 17.0 | 0.00 | 0.00 | 0.00 | 59 | 1006.1 |
| 20260506162749 | 70 | 92 | 5.0 | 17.0 | 0.00 | 0.00 | 0.00 | 58 | 1006.1 |
| 20260506161652 | 71 | 319 | 4.0 | 16.0 | 0.00 | 0.00 | 0.00 | 59 | 1006.2 |
| 20260506161211 | 70 | 205 | 4.0 | 18.0 | 0.00 | 0.00 | 0.00 | 59 | 1006.3 |
| 20260506160700 | 70 | 301 | 4.0 | 18.0 | 0.00 | 0.00 | 0.00 | 59 | 1006.3 |
| 20260506160205 | 70 | 254 | 4.0 | 15.0 | 0.00 | 0.00 | 0.00 | 60 | 1006.5 |
| 20260506155650 | 70 | 268 | 4.0 | 15.0 | 0.00 | 0.00 | 0.00 | 60 | 1006.5 |
| 20260506155143 | 70 | 225 | 3.0 | 15.0 | 0.00 | 0.00 | 0.00 | 60 | 1006.5 |
| 20260506155000 | 70 | 202 | 3.0 | 13.0 | 0.00 | 0.00 | 0.00 | 61 | 1006.6 |
| 20260506154146 | 69 | 256 | 4.0 | 13.0 | 0.00 | 0.00 | 0.00 | 62 | 1006.7 |
| 20260506153650 | 69 | 244 | 4.0 | 15.0 | 0.00 | 0.00 | 0.00 | 62 | 1006.7 |
| 20260506153145 | 69 | 142 | 4.0 | 15.0 | 0.00 | 0.00 | 0.00 | 63 | 1006.8 |
| 20260506152640 | 69 | 250 | 4.0 | 15.0 | 0.00 | 0.00 | 0.00 | 62 | 1006.9 |
| 20260506152138 | 70 | 333 | 4.0 | 15.0 | 0.00 | 0.00 | 0.00 | 61 | 1007.0 |
| 20260506151626 | 70 | 262 | 4.0 | 13.0 | 0.00 | 0.00 | 0.00 | 63 | 1007.0 |
| 20260506151137 | 69 | 337 | 4.0 | 10.0 | 0.00 | 0.00 | 0.00 | 62 | 1007.0 |
| 20260506150632 | 69 | 350 | 4.0 | 10.0 | 0.00 | 0.00 | 0.00 | 63 | 1007.1 |
| 20260506150132 | 69 | 214 | 3.0 | 10.0 | 0.00 | 0.00 | 0.00 | 63 | 1007.1 |
| 20260506145629 | 69 | 254 | 3.0 | 10.0 | 0.00 | 0.00 | 0.00 | 63 | 1007.1 |
| 20260506145131 | 69 | 20 | 4.0 | 14.0 | 0.00 | 0.00 | 0.00 | 62 | 1007.0 |
| 20260506144626 | 69 | 199 | 5.0 | 14.0 | 0.00 | 0.00 | 0.00 | 63 | 1007.1 |
| 20260506144124 | 69 | 320 | 5.0 | 15.0 | 0.00 | 0.00 | 0.00 | 63 | 1007.2 |
| 20260506143623 | 69 | 315 | 4.0 | 15.0 | 0.00 | 0.00 | 0.00 | 63 | 1007.2 |
| 20260506143125 | 69 | 9 | 4.0 | 14.0 | 0.00 | 0.00 | 0.00 | 65 | 1007.0 |
| 20260506142613 | 69 | 287 | 4.0 | 14.0 | 0.00 | 0.00 | 0.00 | 64 | 1007.1 |
| 20260506142118 | 69 | 310 | 3.0 | 11.0 | 0.00 | 0.00 | 0.00 | 66 | 1007.0 |
| 20260506141620 | 68 | 272 | 4.0 | 12.0 | 0.00 | 0.00 | 0.00 | 66 | 1007.0 |
| 20260506141115 | 68 | 242 | 3.0 | 12.0 | 0.00 | 0.00 | 0.00 | 67 | 1007.0 |
| 20260506140622 | 68 | 237 | 3.0 | 12.0 | 0.00 | 0.00 | 0.00 | 67 | 1007.0 |
| 20260506140555 | 66 | 206 | 3.0 | 8.0 | 0.00 | 0.00 | 0.00 | 73 | 1007.2 |
| 20260506140526 | 67 | 241 | 2.0 | 13.0 | 0.00 | 0.00 | 0.00 | 69 | 1007.0 |
| 20260506140516 | 67 | 278 | 3.0 | 13.0 | 0.00 | 0.00 | 0.00 | 70 | 1007.0 |
| 20260506140228 | 68 | 320 | 4.0 | 12.0 | 0.00 | 0.00 | 0.00 | 68 | 1006.9 |
| 20260506135903 | 67 | 223 | 3.0 | 12.0 | 0.00 | 0.00 | 0.00 | 68 | 1007.0 |
| 20260506134316 | 66 | 306 | 3.0 | 9.0 | 0.00 | 0.00 | 0.00 | 70 | 1007.1 |
| 20260506133722 | 66 | 268 | 3.0 | 8.0 | 0.00 | 0.00 | 0.00 | 72 | 1007.0 |
| 20260506132608 | 65 | 236 | 3.0 | 8.0 | 0.00 | 0.00 | 0.00 | 72 | 1007.4 |
| 20260506132112 | 65 | 271 | 3.0 | 8.0 | 0.00 | 0.00 | 0.00 | 72 | 1007.6 |
| 20260506131617 | 65 | 282 | 3.0 | 8.0 | 0.00 | 0.00 | 0.00 | 73 | 1007.6 |
| 20260506131122 | 65 | 307 | 2.0 | 12.0 | 0.00 | 0.00 | 0.00 | 73 | 1007.7 |
| 20260506130725 | 64 | 269 | 2.0 | 10.0 | 0.00 | 0.00 | 0.00 | 75 | 1007.6 |
| 20260506130714 | 63 | 319 | 3.0 | 8.0 | 0.00 | 0.00 | 0.00 | 77 | 1007.7 |
| 20260506130628 | 65 | 253 | 3.0 | 12.0 | 0.00 | 0.00 | 0.00 | 73 | 1007.7 |
| 20260506130243 | 65 | 229 | 4.0 | 14.0 | 0.00 | 0.00 | 0.00 | 73 | 1007.6 |
| 20260506125718 | 65 | 45 | 3.0 | 14.0 | 0.00 | 0.00 | 0.00 | 73 | 1007.7 |
| 20260506125329 | 65 | 96 | 3.0 | 13.0 | 0.00 | 0.00 | 0.00 | 75 | 1007.5 |
| 20260506124104 | 63 | 358 | 2.0 | 10.0 | 0.00 | 0.00 | 0.00 | 77 | 1007.6 |
| 20260506123052 | 62 | 271 | 2.0 | 8.0 | 0.00 | 0.00 | 0.00 | 78 | 1007.7 |
| 20260506122938 | 62 | 217 | 3.0 | 10.0 | 0.00 | 0.00 | 0.00 | 79 | 1007.8 |
| 20260506122931 | 62 | 87 | 2.0 | 9.0 | 0.00 | 0.00 | 0.00 | 78 | 1007.9 |
| 20260506122855 | 62 | 303 | 3.0 | 10.0 | 0.00 | 0.00 | 0.00 | 79 | 1007.7 |
| 20260506122259 | 62 | 271 | 3.0 | 9.0 | 0.00 | 0.00 | 0.00 | 78 | 1007.8 |
| 20260506120549 | 61 | 279 | 3.0 | 10.0 | 0.00 | 0.00 | 0.00 | 80 | 1007.8 |
| 20260506120417 | 60 | 268 | 3.0 | 14.0 | 0.00 | 0.00 | 0.00 | 81 | 1008.0 |
| 20260506120107 | 61 | 238 | 3.0 | 11.0 | 0.00 | 0.00 | 0.00 | 80 | 1007.7 |
| 20260506115616 | 61 | 278 | 3.0 | 11.0 | 0.00 | 0.00 | 0.00 | 81 | 1007.7 |
| 20260506114537 | 60 | 17 | 3.0 | 14.0 | 0.00 | 0.00 | 0.00 | 82 | 1008.2 |
| 20260506114054 | 60 | 277 | 3.0 | 14.0 | 0.00 | 0.00 | 0.00 | 82 | 1008.0 |
| 20260506113551 | 60 | 331 | 2.0 | 14.0 | 0.00 | 0.00 | 0.00 | 82 | 1008.0 |
| 20260506113110 | 60 | 160 | 2.0 | 10.0 | 0.00 | 0.00 | 0.00 | 82 | 1008.2 |
| 20260506112544 | 60 | 279 | 2.0 | 10.0 | 0.00 | 0.00 | 0.00 | 82 | 1008.3 |
| 20260506112501 | 59 | 278 | 2.0 | 10.0 | 0.00 | 0.00 | 0.00 | 83 | 1008.2 |
| 20260506112448 | 59 | 290 | 2.0 | 9.0 | 0.00 | 0.00 | 0.00 | 83 | 1008.1 |
| 20260506112142 | 60 | 260 | 2.0 | 10.0 | 0.00 | 0.00 | 0.00 | 83 | 1008.2 |
| 20260506110526 | 59 | 283 | 3.0 | 10.0 | 0.00 | 0.00 | 0.00 | 83 | 1008.1 |
| 20260506110025 | 59 | 287 | 2.0 | 10.0 | 0.00 | 0.00 | 0.00 | 83 | 1007.9 |
| 20260506105516 | 59 | 287 | 2.0 | 6.0 | 0.00 | 0.00 | 0.00 | 84 | 1007.9 |
| 20260506105013 | 58 | 311 | 2.0 | 7.0 | 0.00 | 0.00 | 0.00 | 84 | 1008.0 |
| 20260506104511 | 58 | 265 | 3.0 | 8.0 | 0.00 | 0.00 | 0.00 | 84 | 1008.0 |
| 20260506104001 | 58 | 253 | 2.0 | 8.0 | 0.00 | 0.00 | 0.00 | 84 | 1008.0 |
| 20260506103725 | 58 | 267 | 2.0 | 7.0 | 0.00 | 0.00 | 0.00 | 84 | 1007.9 |
| 20260506103226 | 58 | 305 | 2.0 | 12.0 | 0.00 | 0.00 | 0.00 | 84 | 1008.0 |
| 20260506102502 | 58 | 322 | 2.0 | 12.0 | 0.00 | 0.00 | 0.00 | 84 | 1008.1 |
| 20260506102001 | 58 | 271 | 2.0 | 12.0 | 0.00 | 0.00 | 0.00 | 84 | 1008.0 |
| 20260506101808 | 58 | 266 | 2.0 | 8.0 | 0.00 | 0.00 | 0.00 | 84 | 1008.0 |
| 20260506101543 | 58 | 333 | 2.0 | 12.0 | 0.00 | 0.00 | 0.00 | 84 | 1008.0 |
| 20260506100500 | 58 | 311 | 1.0 | 7.0 | 0.00 | 0.00 | 0.00 | 83 | 1008.0 |
| 20260506095954 | 58 | 306 | 1.0 | 5.0 | 0.00 | 0.00 | 0.00 | 83 | 1007.9 |
| 20260506095901 | 58 | 243 | 2.0 | 10.0 | 0.00 | 0.00 | 0.00 | 83 | 1007.8 |
| 20260506095543 | 58 | 308 | 2.0 | 10.0 | 0.00 | 0.00 | 0.00 | 83 | 1007.9 |
| 20260506094446 | 58 | 269 | 3.0 | 10.0 | 0.00 | 0.00 | 0.00 | 83 | 1007.8 |
| 20260506093945 | 58 | 316 | 2.0 | 10.0 | 0.00 | 0.00 | 0.00 | 83 | 1007.7 |
| 20260506093720 | 58 | 311 | 1.0 | 9.0 | 0.00 | 0.00 | 0.00 | 83 | 1007.7 |
| 20260506092945 | 58 | 210 | 2.0 | 9.0 | 0.00 | 0.00 | 0.00 | 82 | 1007.8 |
| 20260506092452 | 58 | 258 | 2.0 | 9.0 | 0.00 | 0.00 | 0.00 | 82 | 1007.7 |
| 20260506091946 | 58 | 295 | 3.0 | 11.0 | 0.00 | 0.00 | 0.00 | 82 | 1007.7 |
| 20260506091450 | 59 | 275 | 3.0 | 11.0 | 0.00 | 0.00 | 0.00 | 82 | 1007.8 |
| 20260506090946 | 59 | 312 | 3.0 | 11.0 | 0.00 | 0.00 | 0.00 | 82 | 1007.7 |
| 20260506090434 | 59 | 269 | 3.0 | 13.0 | 0.00 | 0.00 | 0.00 | 82 | 1007.7 |
| 20260506085954 | 59 | 244 | 3.0 | 13.0 | 0.00 | 0.00 | 0.00 | 81 | 1007.7 |
| 20260506085806 | 59 | 277 | 3.0 | 11.0 | 0.00 | 0.00 | 0.00 | 81 | 1008.0 |
| 20260506085801 | 59 | 157 | 3.0 | 13.0 | 0.00 | 0.00 | 0.00 | 81 | 1007.9 |
| 20260506085528 | 59 | 301 | 3.0 | 13.0 | 0.00 | 0.00 | 0.00 | 81 | 1007.8 |
| 20260506084545 | 59 | 314 | 3.0 | 11.0 | 0.00 | 0.00 | 0.00 | 81 | 1007.9 |
| 20260506083423 | 59 | 283 | 3.0 | 11.0 | 0.00 | 0.00 | 0.00 | 81 | 1007.9 |
| 20260506083401 | 59 | 268 | 3.0 | 12.0 | 0.00 | 0.00 | 0.00 | 80 | 1007.8 |
| 20260506083354 | 59 | 289 | 3.0 | 14.0 | 0.00 | 0.00 | 0.00 | 80 | 1007.9 |
| 20260506081917 | 59 | 181 | 4.0 | 14.0 | 0.00 | 0.00 | 0.00 | 80 | 1007.9 |
| 20260506081416 | 59 | 293 | 5.0 | 13.0 | 0.00 | 0.00 | 0.00 | 80 | 1007.9 |
| 20260506081145 | 59 | 180 | 4.0 | 13.0 | 0.00 | 0.00 | 0.00 | 80 | 1007.8 |
| 20260506080413 | 59 | 276 | 3.0 | 10.0 | 0.00 | 0.00 | 0.00 | 79 | 1007.9 |
| 20260506073407 | 60 | 292 | 3.0 | 12.0 | 0.00 | 0.00 | 0.00 | 77 | 1008.0 |
| 20260506072859 | 60 | 327 | 4.0 | 13.0 | 0.00 | 0.00 | 0.00 | 77 | 1007.9 |
| 20260506072634 | 60 | 287 | 3.0 | 13.0 | 0.00 | 0.00 | 0.00 | 77 | 1007.8 |
| 20260506071905 | 60 | 277 | 3.0 | 12.0 | 0.00 | 0.00 | 0.00 | 77 | 1007.8 |
| 20260506071403 | 60 | 257 | 4.0 | 13.0 | 0.00 | 0.00 | 0.00 | 76 | 1007.7 |
| 20260506070913 | 60 | 204 | 4.0 | 13.0 | 0.00 | 0.00 | 0.00 | 76 | 1007.7 |
| 20260506070400 | 60 | 269 | 4.0 | 13.0 | 0.00 | 0.00 | 0.00 | 76 | 1007.7 |
| 20260506061846 | 62 | 258 | 2.0 | 13.0 | 0.00 | 0.00 | 0.00 | 73 | 1007.6 |
| 20260506061721 | 63 | 308 | 4.0 | 16.0 | 0.00 | 0.00 | 0.00 | 71 | 1007.6 |
| 20260506061711 | 62 | 285 | 3.0 | 14.0 | 0.00 | 0.00 | 0.00 | 73 | 1007.6 |
| 20260506061646 | 62 | 2 | 4.0 | 16.0 | 0.00 | 0.00 | 0.00 | 72 | 1007.6 |
| 20260506061006 | 62 | 263 | 5.0 | 16.0 | 0.00 | 0.00 | 0.00 | 72 | 1007.6 |
| 20260506060445 | 62 | 265 | 4.0 | 16.0 | 0.00 | 0.00 | 0.00 | 72 | 1007.7 |
| 20260506044813 | 63 | 310 | 4.0 | 15.0 | 0.00 | 0.00 | 0.00 | 68 | 1008.0 |
| 20260506044314 | 63 | 326 | 4.0 | 15.0 | 0.00 | 0.00 | 0.00 | 68 | 1008.2 |
| 20260506043802 | 63 | 307 | 4.0 | 13.0 | 0.00 | 0.00 | 0.00 | 68 | 1008.1 |
| 20260506043308 | 63 | 327 | 4.0 | 15.0 | 0.00 | 0.00 | 0.00 | 68 | 1008.2 |
| 20260506042837 | 63 | 310 | 4.0 | 16.0 | 0.00 | 0.00 | 0.00 | 67 | 1008.1 |
| 20260506042759 | 63 | 333 | 4.0 | 16.0 | 0.00 | 0.00 | 0.00 | 68 | 1008.0 |
| 20260506042432 | 63 | 183 | 5.0 | 16.0 | 0.00 | 0.00 | 0.00 | 67 | 1008.1 |
| 20260506041249 | 63 | 240 | 4.0 | 16.0 | 0.00 | 0.00 | 0.00 | 67 | 1008.1 |
| 20260506040746 | 63 | 242 | 4.0 | 17.0 | 0.00 | 0.00 | 0.00 | 67 | 1008.1 |
| 20260506040300 | 63 | 322 | 4.0 | 17.0 | 0.00 | 0.00 | 0.00 | 67 | 1008.1 |
| 20260506040217 | 63 | 29 | 4.0 | 17.0 | 0.00 | 0.00 | 0.00 | 66 | 1008.1 |
| 20260506035853 | 63 | 269 | 4.0 | 17.0 | 0.00 | 0.00 | 0.00 | 67 | 1008.0 |
| 20260506034757 | 63 | 300 | 4.0 | 16.0 | 0.00 | 0.00 | 0.00 | 66 | 1008.0 |
| 20260506034606 | 63 | 305 | 3.0 | 10.0 | 0.00 | 0.00 | 0.00 | 66 | 1007.8 |
| 20260506034550 | 63 | 154 | 4.0 | 15.0 | 0.00 | 0.00 | 0.00 | 66 | 1007.9 |
| 20260506034325 | 63 | 313 | 3.0 | 10.0 | 0.00 | 0.00 | 0.00 | 66 | 1007.9 |
| 20260506032735 | 63 | 263 | 4.0 | 13.0 | 0.00 | 0.00 | 0.00 | 66 | 1007.9 |
| 20260506032257 | 63 | 308 | 5.0 | 16.0 | 0.00 | 0.00 | 0.00 | 66 | 1007.7 |
| 20260506032236 | 62 | 286 | 4.0 | 16.0 | 0.00 | 0.00 | 0.00 | 66 | 1007.7 |
| 20260506031802 | 62 | 246 | 4.0 | 13.0 | 0.00 | 0.00 | 0.00 | 66 | 1007.7 |
| 20260506030727 | 63 | 353 | 4.0 | 16.0 | 0.00 | 0.00 | 0.00 | 66 | 1007.7 |
| 20260506030228 | 63 | 307 | 4.0 | 20.0 | 0.00 | 0.00 | 0.00 | 66 | 1007.9 |
| 20260506025828 | 63 | 357 | 4.0 | 22.0 | 0.00 | 0.00 | 0.00 | 66 | 1007.8 |
| 20260506025824 | 63 | 50 | 4.0 | 14.0 | 0.00 | 0.00 | 0.00 | 65 | 1007.9 |
| 20260506025749 | 63 | 310 | 5.0 | 20.0 | 0.00 | 0.00 | 0.00 | 66 | 1007.7 |
| 20260506025413 | 63 | 277 | 4.0 | 22.0 | 0.00 | 0.00 | 0.00 | 66 | 1007.7 |
| 20260506023819 | 63 | 225 | 5.0 | 15.0 | 0.00 | 0.00 | 0.00 | 66 | 1007.9 |
| 20260506023739 | 63 | 107 | 5.0 | 15.0 | 0.00 | 0.00 | 0.00 | 65 | 1007.8 |
| 20260506022715 | 63 | 11 | 4.0 | 17.0 | 0.00 | 0.00 | 0.00 | 65 | 1007.8 |
| 20260506022220 | 63 | 319 | 4.0 | 17.0 | 0.00 | 0.00 | 0.00 | 65 | 1008.0 |
| 20260506022120 | 62 | 271 | 5.0 | 20.0 | 0.00 | 0.00 | 0.00 | 65 | 1008.0 |
| 20260506021837 | 63 | 126 | 5.0 | 20.0 | 0.00 | 0.00 | 0.00 | 65 | 1007.8 |
| 20260506020734 | 62 | 311 | 5.0 | 17.0 | 0.00 | 0.00 | 0.00 | 65 | 1007.8 |
| 20260506020247 | 63 | 287 | 4.0 | 18.0 | 0.00 | 0.00 | 0.00 | 65 | 1007.9 |
| 20260506015703 | 63 | 289 | 4.0 | 18.0 | 0.00 | 0.00 | 0.00 | 64 | 1007.8 |
| 20260506014716 | 63 | 287 | 4.0 | 18.0 | 0.00 | 0.00 | 0.00 | 63 | 1007.8 |
| 20260506014209 | 63 | 343 | 4.0 | 18.0 | 0.00 | 0.00 | 0.00 | 63 | 1007.7 |
| 20260506013709 | 63 | 257 | 5.0 | 18.0 | 0.00 | 0.00 | 0.00 | 63 | 1007.8 |
| 20260506013309 | 63 | 318 | 4.0 | 16.0 | 0.00 | 0.00 | 0.00 | 62 | 1007.6 |
| 20260506013212 | 63 | 100 | 5.0 | 16.0 | 0.00 | 0.00 | 0.00 | 63 | 1007.7 |
| 20260506013131 | 63 | 317 | 4.0 | 16.0 | 0.00 | 0.00 | 0.00 | 62 | 1007.6 |
| 20260506012031 | 64 | 298 | 3.0 | 16.0 | 0.00 | 0.00 | 0.00 | 61 | 1007.5 |
| 20260506011737 | 64 | 307 | 3.0 | 16.0 | 0.00 | 0.00 | 0.00 | 61 | 1007.5 |
| 20260506010933 | 64 | 246 | 4.0 | 12.0 | 0.00 | 0.00 | 0.00 | 60 | 1007.4 |
| 20260506010925 | 64 | 348 | 5.0 | 14.0 | 0.00 | 0.00 | 0.00 | 60 | 1007.5 |
| 20260506010736 | 64 | 300 | 4.0 | 14.0 | 0.00 | 0.00 | 0.00 | 61 | 1007.4 |
| 20260506005413 | 65 | 237 | 4.0 | 16.0 | 0.00 | 0.00 | 0.00 | 60 | 1007.3 |
| 20260506005140 | 65 | 237 | 4.0 | 16.0 | 0.00 | 0.00 | 0.00 | 60 | 1007.3 |
| 20260506004650 | 65 | 300 | 5.0 | 16.0 | 0.00 | 0.00 | 0.00 | 60 | 1007.4 |
| 20260506004415 | 65 | 267 | 5.0 | 22.0 | 0.00 | 0.00 | 0.00 | 60 | 1007.2 |
| 20260506003644 | 65 | 298 | 5.0 | 22.0 | 0.00 | 0.00 | 0.00 | 59 | 1007.1 |
| 20260506003505 | 66 | 279 | 4.0 | 24.0 | 0.00 | 0.00 | 0.00 | 58 | 1007.0 |
| 20260506003246 | 66 | 309 | 5.0 | 24.0 | 0.00 | 0.00 | 0.00 | 59 | 1007.0 |
| 20260506002147 | 66 | 297 | 5.0 | 13.0 | 0.00 | 0.00 | 0.00 | 58 | 1006.9 |
| 20260506001633 | 66 | 339 | 6.0 | 13.0 | 0.00 | 0.00 | 0.00 | 57 | 1006.9 |
| 20260506001145 | 67 | 327 | 5.0 | 13.0 | 0.00 | 0.00 | 0.00 | 57 | 1006.7 |
| 20260506000709 | 67 | 347 | 2.0 | 8.0 | 0.00 | 0.00 | 0.00 | 56 | 1006.6 |
| 20260506000205 | 67 | 9 | 2.0 | 8.0 | 0.00 | 0.00 | 0.00 | 55 | 1006.5 |
| 20260505235700 | 68 | 294 | 3.0 | 13.0 | 0.00 | 0.00 | 0.00 | 54 | 1006.5 |
| 20260505235207 | 68 | 325 | 4.0 | 13.0 | 0.00 | 0.00 | 0.00 | 53 | 1006.4 |
| 20260505234650 | 69 | 277 | 4.0 | 13.0 | 0.00 | 0.00 | 0.00 | 53 | 1006.3 |
| 20260505234128 | 69 | 358 | 3.0 | 18.0 | 0.00 | 0.00 | 0.00 | 52 | 1006.2 |
| 20260505233618 | 69 | 324 | 4.0 | 18.0 | 0.00 | 0.00 | 0.00 | 51 | 1006.1 |
| 20260505233347 | 70 | 298 | 5.0 | 18.0 | 0.00 | 0.00 | 0.00 | 49 | 1006.1 |
| 20260505233130 | 70 | 324 | 4.0 | 18.0 | 0.00 | 0.00 | 0.00 | 50 | 1006.0 |
| 20260505232107 | 71 | 284 | 6.0 | 14.0 | 0.00 | 0.00 | 0.00 | 49 | 1005.9 |
| 20260505231904 | 71 | 256 | 5.0 | 15.0 | 0.00 | 0.00 | 0.00 | 48 | 1006.0 |
| 20260505231700 | 71 | 272 | 6.0 | 15.0 | 0.00 | 0.00 | 0.00 | 48 | 1006.1 |